Lafayette, LA

6:35 PM CDT on August 30, 2016 (GMT -0500)
Lafayette Regional

Weather History for KLFT - November, 2012

Change the Weather History Date:

Tuesday, November 13, 2012

  Actual Average Record
Temperature  
Mean Temperature 50 °F 62 °F  
Max Temperature 60 °F 73 °F 86 °F (1924)
Min Temperature 39 °F 52 °F 27 °F (1900)
Degree Days  
Heating Degree Days 15 5  
Month to date heating degree days 44 49  
Since 1 July heating degree days 91 85  
Moisture  
Dew Point 32 °F    
Average Humidity 59    
Maximum Humidity 85    
Minimum Humidity 32    
Precipitation  
Precipitation 0.00 in 0.13 in 3.71 in (1961)
Month to date precipitation 1.05 1.95  
Year to date precipitation 59.04 52.52  
Snow  
Snow 0.00 in 0.00 in 0.00 in ()
Month to date snowfall 0.0 0.0  
Since 1 July snowfall 0.0 0.0  
Since 1 September snowfall 0.0 0.0  
Snow Depth 0.00 in    
Sea Level Pressure  
Sea Level Pressure 30.38 in    
Wind  
Wind Speed 10 mph (NNE)    
Max Wind Speed 22 mph    
Max Gust Speed 28 mph    
Visibility 10 miles    
Events      
T = Trace of Precipitation, MM = Missing Value Source: NWS Daily Summary

Daily Weather History Graph

Daily Weather History Graph

Search for Another Location

Airport or City:

Trip Planner

Search our weather history database for the weather conditions in past years. The results will help you decide how hot, cold, wet, or windy it might be!

Date:

Astronomy

Nov. 13, 2012 Rise Set
Actual Time 6:32 AM CST 5:12 PM CST
Civil Twilight 6:06 AM CST 5:37 PM CST
Nautical Twilight 5:37 AM CST 6:06 PM CST
Astronomical Twilight 5:09 AM CST 6:34 PM CST
Moon 6:09 AM CST (11/13) 5:07 PM CST (11/13)
Length of Visible Light 11h 30m
Length of Day
10h 40m
Waning Crescent, 0% of the Moon is Illuminated
Nov 13
Waning Crescent
Nov 13
New
Nov 20
First Quarter
Nov 28
Full
Dec 6
Last Quarter

Hourly Weather History & Observations

Time (CST) Temp. Windchill Dew Point Humidity Pressure Visibility Wind Dir Wind Speed Gust Speed Precip Events Conditions
12:53 AM 43.0 °F 38.2 °F 36.0 °F 76% 30.41 in 10.0 mi NNE 8.1 mph - N/A   Clear
1:53 AM 42.1 °F 37.1 °F 35.1 °F 76% 30.41 in 10.0 mi NNE 8.1 mph - N/A   Clear
2:53 AM 39.9 °F 34.5 °F 35.1 °F 83% 30.41 in 10.0 mi NNE 8.1 mph - N/A   Clear
3:53 AM 41.0 °F 34.7 °F 35.1 °F 79% 30.42 in 10.0 mi NNE 10.4 mph - N/A   Clear
4:53 AM 39.9 °F 33.9 °F 34.0 °F 79% 30.43 in 10.0 mi NNE 9.2 mph - N/A   Clear
5:53 AM 39.0 °F 32.8 °F 33.1 °F 79% 30.43 in 10.0 mi NNE 9.2 mph - N/A   Clear
6:53 AM 39.0 °F 32.8 °F 33.1 °F 79% 30.45 in 10.0 mi NNE 9.2 mph - N/A   Clear
7:53 AM 43.0 °F 36.8 °F 32.0 °F 65% 30.46 in 10.0 mi NE 11.5 mph - N/A   Clear
8:53 AM 48.0 °F - 30.0 °F 50% 30.46 in 10.0 mi NE 11.5 mph 18.4 mph N/A   Clear
9:53 AM 52.0 °F - 28.0 °F 40% 30.45 in 10.0 mi NE 17.3 mph 24.2 mph N/A   Clear
10:53 AM 55.0 °F - 26.1 °F 33% 30.41 in 10.0 mi ENE 12.7 mph 21.9 mph N/A   Clear
11:53 AM 57.0 °F - 28.0 °F 33% 30.37 in 10.0 mi NE 12.7 mph - N/A   Clear
12:53 PM 57.0 °F - 28.0 °F 33% 30.33 in 10.0 mi NNE 11.5 mph 20.7 mph N/A   Clear
1:53 PM 59.0 °F - 30.0 °F 33% 30.32 in 10.0 mi North 13.8 mph 19.6 mph N/A   Clear
2:53 PM 57.0 °F - 28.9 °F 34% 30.32 in 8.0 mi NNE 11.5 mph - N/A   Clear
3:53 PM 55.9 °F - 28.9 °F 36% 30.32 in 10.0 mi NNE 9.2 mph - N/A   Clear
4:53 PM 54.0 °F - 30.9 °F 41% 30.32 in 10.0 mi North 9.2 mph - N/A   Clear
5:53 PM 51.1 °F - 33.1 °F 50% 30.32 in 10.0 mi North 4.6 mph - N/A   Clear
6:53 PM 51.1 °F - 33.1 °F 50% 30.33 in 10.0 mi North 6.9 mph - N/A   Clear
7:53 PM 50.0 °F - 33.1 °F 52% 30.33 in 10.0 mi NNE 6.9 mph - N/A   Clear
8:53 PM 48.0 °F - 34.0 °F 58% 30.34 in 10.0 mi North 5.8 mph - N/A   Clear
9:53 PM 48.9 °F - 34.0 °F 56% 30.35 in 10.0 mi North 6.9 mph - N/A   Clear
10:53 PM 48.0 °F - 35.1 °F 61% 30.34 in 10.0 mi NNE 9.2 mph - N/A   Clear
11:53 PM 48.0 °F - 35.1 °F 61% 30.33 in 10.0 mi North 8.1 mph - N/A   Clear